Location: Mentone
(34.5413°N, 85.5351°W)
Time: 05:00:19
(UTC-05:00)

Uosat F - Visible Passes

Search period start: 30 June 2015 00:00
Search period end: 10 July 2015 00:00
Orbit: 752 x 761 km, 98.7° (Epoch: 29 June)

Date Brightness Start Highest point End Pass type
(mag) Time Alt. Az. Time Alt. Az. Time Alt. Az.
01 Jul 13.9 04:30:12 10° ENE 04:32:18 13° E 04:34:43 10° ESE visible
03 Jul 13.6 04:48:57 10° NE 04:52:40 21° E 04:56:31 10° SE visible
06 Jul 13.9 04:31:05 10° ENE 04:33:13 13° E 04:35:39 10° ESE visible
08 Jul 13.6 04:49:52 10° NE 04:53:35 21° E 04:57:26 10° SE visible
